Change the Weather History Date:

Thursday, March 7, 2013

  Actual Average Record
Temperature  
Mean Temperature 32 °F -  
Max Temperature 35 °F 36 °F 55 °F (2009)
Min Temperature 30 °F 18 °F -9 °F (2003)
Degree Days  
Heating Degree Days 32    
Moisture  
Dew Point 28 °F    
Average Humidity 85    
Maximum Humidity 96    
Minimum Humidity 64    
Precipitation  
Precipitation 0.13 in - - ()
Sea Level Pressure  
Sea Level Pressure 30.06 in    
Wind  
Wind Speed 12 mph (North)    
Max Wind Speed 18 mph    
Max Gust Speed 28 mph    
Visibility 3 miles    
Events Snow    
Averages and records for this station are not official NWS values.
T = Trace of Precipitation, MM = Missing Value Source: NWS Daily Summary

Daily Weather History Graph

Daily Weather History Graph

Search for Another Location

Airport or City:

Trip Planner

Search our weather history database for the weather conditions in past years. The results will help you decide how hot, cold, wet, or windy it might be!

Date:

Astronomy

Mar. 07, 2013 Rise Set
Actual Time 6:14 AM EST 5:46 PM EST
Civil Twilight 5:46 AM EST 6:14 PM EST
Nautical Twilight 5:13 AM EST 6:47 PM EST
Astronomical Twilight 4:40 AM EST 7:20 PM EST
Moon 3:16 AM EST (3/7) 1:26 PM EST (3/7)
Length of Visible Light 12h 28m
Length of Day
11h 31m
Waning Crescent, 20% of the Moon is Illuminated
Mar 7
Waning Crescent
Mar 11
New
Mar 19
First Quarter
Mar 27
Full
Apr 3
Last Quarter

Hourly Weather History & Observations

Time (EST) Temp. Windchill Dew Point Humidity Pressure Visibility Wind Dir Wind Speed Gust Speed Precip Events Conditions
12:52 AM 32.0 °F 23.0 °F 26.1 °F 79% 30.10 in 10.0 mi NE 11.5 mph 24.2 mph N/A   Overcast
1:52 AM 32.0 °F 22.1 °F 26.1 °F 79% 30.09 in 10.0 mi NE 13.8 mph 26.5 mph N/A   Overcast
2:52 AM 32.0 °F 22.1 °F 25.0 °F 75% 30.07 in 10.0 mi North 13.8 mph 26.5 mph N/A   Overcast
3:52 AM 30.9 °F 20.7 °F 25.0 °F 79% 30.07 in 10.0 mi NNE 13.8 mph 19.6 mph N/A   Overcast
4:52 AM 30.9 °F 20.2 °F 25.0 °F 79% 30.07 in 4.0 mi NNE 15.0 mph 25.3 mph 0.00 in Snow Light Snow
5:52 AM 30.0 °F 21.1 °F 25.0 °F 82% 30.06 in 10.0 mi North 10.4 mph 21.9 mph 0.00 in   Overcast
6:52 AM 30.9 °F 21.2 °F 24.1 °F 76% 30.08 in 10.0 mi North 12.7 mph 25.3 mph 0.00 in   Overcast
7:31 AM 30.2 °F 19.3 °F 24.8 °F 80% 30.07 in 1.8 mi NNE 15.0 mph 23.0 mph 0.00 in Snow Light Snow
7:40 AM 30.2 °F 19.8 °F 24.8 °F 80% 30.07 in 1.2 mi NNE 13.8 mph 23.0 mph 0.00 in Snow Light Snow
7:47 AM 30.2 °F 20.2 °F 24.8 °F 80% 30.07 in 1.5 mi North 12.7 mph 23.0 mph 0.00 in Snow Light Snow
7:52 AM 30.0 °F 21.1 °F 25.0 °F 82% 30.09 in 1.2 mi North 10.4 mph - 0.00 in Snow Light Snow
8:12 AM 30.2 °F 20.2 °F 24.8 °F 80% 30.07 in 1.8 mi North 12.7 mph - 0.00 in Snow Light Snow
8:23 AM 30.2 °F 20.8 °F 24.8 °F 80% 30.07 in 2.0 mi North 11.5 mph - 0.00 in Snow Light Snow
8:36 AM 30.2 °F 20.8 °F 24.8 °F 80% 30.07 in 1.8 mi North 11.5 mph - 0.00 in Snow Light Snow
8:52 AM 30.9 °F 21.2 °F 25.0 °F 79% 30.09 in 2.5 mi North 12.7 mph 23.0 mph 0.00 in Snow Light Snow
9:01 AM 30.2 °F 18.9 °F 24.8 °F 80% 30.07 in 6.0 mi North 16.1 mph 24.2 mph 0.00 in Snow Light Snow
10:52 AM 34.0 °F 23.0 °F 24.1 °F 67% 30.07 in 10.0 mi NE 18.4 mph 27.6 mph N/A   Overcast
11:39 AM 35.6 °F 25.5 °F 24.8 °F 65% 30.06 in 10.0 mi NNE 17.3 mph 21.9 mph N/A   Overcast
11:52 AM 35.1 °F 25.2 °F 24.1 °F 64% 30.08 in 10.0 mi NNE 16.1 mph 25.3 mph N/A   Overcast
12:52 PM 34.0 °F 23.8 °F 26.1 °F 73% 30.07 in 4.0 mi NNE 16.1 mph 23.0 mph 0.00 in Snow Light Snow
1:07 PM 33.8 °F 23.5 °F 26.6 °F 75% 30.05 in 2.5 mi North 16.1 mph 20.7 mph 0.00 in Snow Light Snow
1:21 PM 33.8 °F 24.3 °F 26.6 °F 75% 30.04 in 1.8 mi North 13.8 mph - 0.00 in Snow Light Snow
1:49 PM 33.8 °F 24.8 °F 28.4 °F 81% 30.04 in 2.0 mi North 12.7 mph - 0.00 in Snow Light Snow
1:52 PM 34.0 °F 25.5 °F 28.0 °F 79% 30.06 in 2.5 mi North 11.5 mph - 0.00 in Snow Light Snow
2:24 PM 33.8 °F 25.8 °F 28.4 °F 81% 30.04 in 1.8 mi North 10.4 mph - 0.00 in Snow Light Snow
2:52 PM 34.0 °F 25.0 °F 28.9 °F 82% 30.06 in 1.8 mi North 12.7 mph - 0.00 in Snow Light Snow
3:23 PM 33.8 °F 25.3 °F 28.4 °F 81% 30.04 in 2.0 mi North 11.5 mph - 0.00 in Snow Light Snow
3:35 PM 33.8 °F 27.0 °F 28.4 °F 81% 30.05 in 2.0 mi NNW 8.1 mph - 0.00 in Snow Light Snow
3:39 PM 33.8 °F 27.7 °F 30.2 °F 87% 30.05 in 1.8 mi North 6.9 mph - 0.00 in Snow Light Snow
3:52 PM 33.1 °F 24.9 °F 30.0 °F 89% 30.07 in 1.5 mi North 10.4 mph - 0.00 in Snow Light Snow
3:59 PM 33.8 °F 27.0 °F 30.2 °F 87% 30.05 in 1.2 mi North 8.1 mph - 0.00 in Snow Light Snow
4:19 PM 33.8 °F 25.8 °F 28.4 °F 81% 30.05 in 1.0 mi North 10.4 mph - 0.01 in Snow Light Snow
4:27 PM 33.8 °F 27.0 °F 30.2 °F 87% 30.05 in 1.2 mi North 8.1 mph - 0.01 in Snow Light Snow
4:52 PM 32.0 °F 24.8 °F 30.0 °F 92% 30.07 in 1.2 mi North 8.1 mph - 0.01 in Snow Light Snow
5:18 PM 32.0 °F 25.6 °F 30.2 °F 93% 30.06 in 1.0 mi North 6.9 mph - 0.01 in Snow Light Snow
5:25 PM 32.0 °F 26.4 °F 30.2 °F 93% 30.06 in 0.8 mi North 5.8 mph - 0.01 in Snow Light Snow
5:36 PM 32.0 °F 26.4 °F 30.2 °F 93% 30.06 in 0.8 mi North 5.8 mph - 0.02 in Snow Light Snow
5:49 PM 32.0 °F 25.6 °F 30.2 °F 93% 30.06 in 0.8 mi North 6.9 mph - 0.03 in Snow Light Snow
5:52 PM 32.0 °F 26.4 °F 30.9 °F 96% 30.08 in 0.8 mi North 5.8 mph - 0.03 in Snow Light Snow
5:57 PM 32.0 °F 26.4 °F 30.2 °F 93% 30.06 in 1.2 mi North 5.8 mph - 0.00 in Snow Light Snow
6:11 PM 32.0 °F 26.4 °F 30.2 °F 93% 30.06 in 1.8 mi NNW 5.8 mph - 0.01 in Snow Light Snow
6:25 PM 32.0 °F 26.4 °F 30.2 °F 93% 30.06 in 1.5 mi North 5.8 mph - 0.01 in Snow Light Snow
6:52 PM 32.0 °F 26.4 °F 30.9 °F 96% 30.08 in 1.0 mi North 5.8 mph - 0.03 in Snow Light Snow
6:57 PM 32.0 °F 25.6 °F 30.2 °F 93% 30.06 in 1.0 mi North 6.9 mph - 0.00 in Snow Light Snow
7:05 PM 32.0 °F 25.6 °F 30.2 °F 93% 30.06 in 1.5 mi North 6.9 mph - 0.00 in Snow Light Snow
7:35 PM 32.0 °F 24.8 °F 30.2 °F 93% 30.05 in 1.8 mi North 8.1 mph - 0.01 in Snow Light Snow
7:52 PM 32.0 °F 25.6 °F 30.0 °F 92% 30.07 in 2.0 mi North 6.9 mph - 0.01 in Snow Light Snow
8:40 PM 32.0 °F 24.2 °F 30.2 °F 93% 30.05 in 1.5 mi North 9.2 mph - 0.01 in Snow Light Snow
8:52 PM 32.0 °F 24.2 °F 30.0 °F 92% 30.06 in 1.5 mi North 9.2 mph - 0.01 in Snow Light Snow
9:26 PM 32.0 °F 24.2 °F 30.2 °F 93% 30.04 in 2.0 mi North 9.2 mph - 0.01 in Snow Light Snow
9:52 PM 32.0 °F 24.2 °F 30.0 °F 92% 30.05 in 1.8 mi North 9.2 mph - 0.01 in Snow Light Snow
10:19 PM 32.0 °F 24.2 °F 28.4 °F 87% 30.03 in 2.5 mi North 9.2 mph - 0.00 in Snow Light Snow
10:35 PM 30.2 °F 21.9 °F 28.4 °F 93% 30.02 in 3.0 mi North 9.2 mph - 0.01 in Snow Light Snow
10:44 PM 30.2 °F 22.6 °F 28.4 °F 93% 30.02 in 2.5 mi North 8.1 mph - 0.01 in Snow Light Snow
10:52 PM 32.0 °F 23.0 °F 28.9 °F 88% 30.04 in 3.0 mi North 11.5 mph - 0.01 in Snow Light Snow
11:05 PM 30.2 °F 21.9 °F 28.4 °F 93% 30.02 in 2.5 mi North 9.2 mph - 0.00 in Snow Light Snow
11:22 PM 30.2 °F 21.3 °F 28.4 °F 93% 30.02 in 1.2 mi North 10.4 mph - 0.00 in Snow Light Snow
11:52 PM 30.9 °F 23.5 °F 28.9 °F 92% 30.04 in 1.0 mi North 8.1 mph - 0.02 in Snow Light Snow